Weather History for Weslaco, TX

Change the Weather History Date:

Tuesday, July 30, 2013

  Actual Average (KMFE) Record (KMFE)
Temperature  
Mean Temperature 90 °F 87 °F  
Max Temperature 101 °F 98 °F 106 °F (2009)
Min Temperature 80 °F 77 °F 65 °F (1974)
Degree Days  
Heating Degree Days 0 0  
Month to date heating degree days 0  
Since 1 June heating degree days 0  
Since 1 July heating degree days 0  
Cooling Degree Days 25 22  
Month to date cooling degree days 650  
Year to date cooling degree days 2533  
Since 1 June cooling degree days 1278  
Growing Degree Days 40 (Base 50)    
Moisture  
Dew Point 70 °F    
Average Humidity 60    
Maximum Humidity 85    
Minimum Humidity 27    
Precipitation  
Precipitation 0.00 in 0.05 in 1.15 in (1947)
Month to date precipitation 1.96  
Year to date precipitation 11.32  
Sea Level Pressure  
Sea Level Pressure 30.02 in    
Wind  
Wind Speed 13 mph (SSE)    
Max Wind Speed 18 mph    
Max Gust Speed 30 mph    
Visibility 9 miles    
Events      
T = Trace of Precipitation, MM = Missing Value Source: NWS Daily Summary

Daily Weather History Graph

Daily Weather History Graph

Search for Another Location

Airport:

Trip Planner

Search our weather history database for the weather conditions in past years. The results will help you decide how hot, cold, wet, or windy it might be!

Date:

Astronomy

Jul. 30, 2013 Rise Set
Actual Time 6:56 AM CDT 8:19 PM CDT
Civil Twilight 6:31 AM CDT 8:44 PM CDT
Nautical Twilight 6:02 AM CDT 9:14 PM CDT
Astronomical Twilight 5:31 AM CDT 9:44 PM CDT
Moon 1:10 AM CDT (7/30) 2:42 PM CDT (7/30)
Length of Visible Light 14h 12m
Length of Day
13h 22m
Last Quarter, 41% of the Moon is Illuminated
Jul 30
Last Quarter
Aug 6
New
Aug 14
First Quarter
Aug 20
Full
Aug 28
Last Quarter

Hourly Weather History & Observations

Time (CDT) Temp. Heat Index Dew Point Humidity Pressure Visibility Wind Dir Wind Speed Gust Speed Precip Events Conditions
12:15 AM 82.4 °F 88.7 °F 74.3 °F 76% 30.04 in 10.0 mi SSE 12.7 mph 19.6 mph N/A   Mostly Cloudy
12:35 AM 82.4 °F 88.7 °F 74.3 °F 76% 30.04 in 10.0 mi SSE 12.7 mph 18.4 mph N/A   Mostly Cloudy
12:55 AM 82.4 °F 88.7 °F 74.3 °F 76% 30.04 in 10.0 mi SSE 13.8 mph 19.6 mph N/A   Scattered Clouds
1:15 AM 82.2 °F 88.5 °F 74.5 °F 77% 30.04 in 10.0 mi SSE 15.0 mph 20.7 mph N/A   Clear
1:35 AM 81.9 °F 88.0 °F 74.5 °F 78% 30.04 in 10.0 mi SSE 13.8 mph 21.9 mph N/A   Clear
1:55 AM 81.7 °F 87.8 °F 74.5 °F 79% 30.03 in 10.0 mi SSE 13.8 mph 21.9 mph N/A   Scattered Clouds
2:15 AM 81.5 °F 87.6 °F 74.7 °F 80% 30.02 in 10.0 mi SSE 12.7 mph 17.3 mph N/A   Scattered Clouds
2:35 AM 81.5 °F 87.6 °F 74.7 °F 80% 30.02 in 10.0 mi SSE 11.5 mph 16.1 mph N/A   Mostly Cloudy
2:55 AM 81.1 °F 86.8 °F 74.5 °F 80% 30.02 in 10.0 mi SSE 11.5 mph 19.6 mph N/A   Scattered Clouds
3:15 AM 81.5 °F 87.6 °F 74.7 °F 80% 30.02 in 10.0 mi SSE 12.7 mph 20.7 mph N/A   Clear
3:35 AM 81.5 °F 87.6 °F 74.8 °F 80% 30.02 in 10.0 mi SSE 11.5 mph 18.4 mph N/A   Clear
3:55 AM 81.1 °F 87.0 °F 74.8 °F 81% 30.01 in 10.0 mi SSE 13.8 mph 18.4 mph N/A   Clear
4:15 AM 81.0 °F 86.7 °F 74.8 °F 82% 30.02 in 10.0 mi SSE 12.7 mph 17.3 mph N/A   Clear
4:35 AM 81.0 °F 86.7 °F 74.8 °F 82% 30.02 in 10.0 mi SSE 12.7 mph 19.6 mph N/A   Clear
4:55 AM 80.8 °F 86.5 °F 75.2 °F 83% 30.02 in 10.0 mi SSE 11.5 mph - N/A   Clear
5:15 AM 80.8 °F 86.5 °F 75.2 °F 83% 30.02 in 10.0 mi SSE 11.5 mph 17.3 mph N/A   Clear
5:35 AM 80.6 °F 86.0 °F 75.0 °F 83% 30.01 in 10.0 mi SSE 13.8 mph 17.3 mph N/A   Clear
5:55 AM 80.6 °F 86.2 °F 75.2 °F 84% 30.01 in 10.0 mi SSE 12.7 mph - N/A   Clear
6:15 AM 80.2 °F 85.5 °F 75.2 °F 85% 30.01 in 10.0 mi SSE 10.4 mph 16.1 mph N/A   Clear
6:35 AM 80.1 °F 85.1 °F 75.2 °F 85% 30.02 in 10.0 mi SSE 10.4 mph - N/A   Clear
6:55 AM 80.1 °F 85.1 °F 75.0 °F 85% 30.03 in 7.0 mi SSE 10.4 mph - N/A   Clear
7:15 AM 80.1 °F 85.1 °F 75.2 °F 85% 30.03 in 7.0 mi SSE 9.2 mph - N/A   Clear
7:35 AM 80.6 °F 86.2 °F 75.2 °F 84% 30.04 in 7.0 mi SSE 6.9 mph - N/A   Clear
7:55 AM 81.5 °F 87.8 °F 75.2 °F 81% 30.04 in 7.0 mi SSE 10.4 mph - N/A   Clear
8:15 AM 82.4 °F 89.5 °F 75.4 °F 79% 30.04 in 7.0 mi SSE 9.2 mph - N/A   Clear
8:35 AM 83.7 °F 91.7 °F 75.4 °F 76% 30.04 in 7.0 mi South 11.5 mph - N/A   Clear
8:55 AM 85.3 °F 93.4 °F 74.5 °F 70% 30.05 in 7.0 mi South 13.8 mph 19.6 mph N/A   Scattered Clouds
9:15 AM 86.5 °F 94.6 °F 73.8 °F 66% 30.05 in 7.0 mi South 13.8 mph 23.0 mph N/A   Scattered Clouds
9:35 AM 87.8 °F 95.2 °F 72.9 °F 61% 30.06 in 7.0 mi South 13.8 mph 20.7 mph N/A   Clear
9:55 AM 89.2 °F 96.4 °F 72.3 °F 57% 30.06 in 7.0 mi SSE 12.7 mph 20.7 mph N/A   Scattered Clouds
10:15 AM 90.5 °F 97.0 °F 71.4 °F 53% 30.06 in 7.0 mi SSE 11.5 mph 20.7 mph N/A   Scattered Clouds
10:35 AM 92.1 °F 98.8 °F 71.1 °F 50% 30.06 in 7.0 mi South 12.7 mph 20.7 mph N/A   Mostly Cloudy
10:55 AM 92.1 °F 97.7 °F 70.0 °F 48% 30.07 in 10.0 mi South 13.8 mph 20.7 mph N/A   Scattered Clouds
11:15 AM 94.1 °F 100.0 °F 69.8 °F 45% 30.07 in 7.0 mi SSE 12.7 mph 19.6 mph N/A   Scattered Clouds
11:55 AM 95.7 °F 99.8 °F 67.1 °F 39% 30.06 in 10.0 mi South 15.0 mph 23.0 mph N/A   Scattered Clouds
12:15 PM 97.0 °F 100.4 °F 66.2 °F 36% 30.05 in 7.0 mi SSE 17.3 mph 26.5 mph N/A   Clear
12:35 PM 96.8 °F 99.0 °F 64.0 °F 34% 30.04 in 7.0 mi South 13.8 mph 24.2 mph N/A   Clear
1:15 PM 98.6 °F 100.5 °F 63.0 °F 31% 30.02 in 7.0 mi South 16.1 mph 23.0 mph N/A   Clear
1:35 PM 99.0 °F 100.0 °F 61.7 °F 29% 30.02 in 10.0 mi SSE 17.3 mph 28.8 mph N/A   Clear
1:55 PM 99.7 °F 100.7 °F 61.3 °F 28% 30.01 in 10.0 mi SSE 12.7 mph 24.2 mph N/A   Clear
2:15 PM 99.5 °F 99.9 °F 60.4 °F 27% 30.01 in 10.0 mi SSE 18.4 mph 24.2 mph N/A   Clear
2:35 PM 100.0 °F 100.7 °F 60.6 °F 27% 30.00 in 10.0 mi South 15.0 mph 23.0 mph N/A   Clear
2:55 PM 100.9 °F 102.1 °F 61.7 °F 27% 30.00 in 10.0 mi SSE 16.1 mph 21.9 mph N/A   Clear
3:15 PM 100.8 °F 103.0 °F 63.1 °F 29% 29.99 in 10.0 mi SE 17.3 mph 26.5 mph N/A   Clear
3:35 PM 99.3 °F 102.9 °F 65.1 °F 33% 29.99 in 10.0 mi SSE 16.1 mph 29.9 mph N/A   Clear
3:55 PM 99.3 °F 102.9 °F 65.3 °F 33% 29.98 in 10.0 mi SE 15.0 mph 25.3 mph N/A   Clear
4:15 PM 99.9 °F 103.3 °F 64.9 °F 32% 29.98 in 7.0 mi SSE 13.8 mph 21.9 mph N/A   Clear
4:35 PM 98.4 °F 101.3 °F 64.4 °F 33% 29.98 in 10.0 mi South 13.8 mph 23.0 mph N/A   Clear
4:55 PM 98.1 °F 100.1 °F 63.5 °F 32% 29.97 in 10.0 mi SSE 15.0 mph 20.7 mph N/A   Clear
5:15 PM 97.2 °F 99.1 °F 63.9 °F 33% 29.97 in 7.0 mi SE 15.0 mph 24.2 mph N/A   Clear
5:35 PM 96.3 °F 99.7 °F 65.8 °F 37% 29.97 in 10.0 mi South 18.4 mph 25.3 mph N/A   Clear
5:55 PM 96.1 °F 99.9 °F 66.9 °F 38% 29.97 in 10.0 mi SSE 15.0 mph 21.9 mph N/A   Clear
6:15 PM 95.0 °F 99.0 °F 67.3 °F 40% 29.96 in 10.0 mi SSE 15.0 mph 23.0 mph N/A   Clear
6:35 PM 93.4 °F 97.6 °F 67.6 °F 43% 29.97 in 10.0 mi SSE 15.0 mph 25.3 mph N/A   Clear
6:55 PM 91.9 °F 96.4 °F 68.4 °F 46% 29.98 in 10.0 mi SSE 17.3 mph 24.2 mph N/A   Clear
7:15 PM 90.7 °F 95.0 °F 68.5 °F 48% 29.98 in 10.0 mi SSE 17.3 mph 23.0 mph N/A   Clear
7:35 PM 89.2 °F 93.6 °F 69.1 °F 51% 29.99 in 10.0 mi SSE 12.7 mph 21.9 mph N/A   Clear
7:55 PM 88.3 °F 92.4 °F 68.9 °F 52% 29.99 in 10.0 mi SE 16.1 mph 20.7 mph N/A   Clear
8:15 PM 87.3 °F 91.2 °F 68.9 °F 54% 29.99 in 10.0 mi SE 15.0 mph 21.9 mph N/A   Clear
8:35 PM 86.0 °F 90.1 °F 69.3 °F 57% 30.00 in 10.0 mi SSE 13.8 mph 19.6 mph N/A   Clear
8:55 PM 85.3 °F 89.1 °F 68.9 °F 58% 30.00 in 10.0 mi SE 13.8 mph 19.6 mph N/A   Clear
9:15 PM 84.6 °F 88.5 °F 69.1 °F 60% 30.01 in 10.0 mi SE 15.0 mph 20.7 mph N/A   Clear
9:35 PM 83.8 °F 87.8 °F 69.4 °F 62% 30.01 in 10.0 mi SE 10.4 mph - N/A   Clear
9:55 PM 83.1 °F 87.1 °F 69.8 °F 64% 30.01 in 10.0 mi SE 11.5 mph 16.1 mph N/A   Clear
10:15 PM 82.6 °F 86.6 °F 70.2 °F 66% 30.02 in 10.0 mi SE 10.4 mph 16.1 mph N/A   Clear
10:35 PM 82.0 °F 86.3 °F 70.9 °F 69% 30.02 in 10.0 mi SSE 11.5 mph - N/A   Clear
10:55 PM 81.5 °F 85.5 °F 71.1 °F 70% 30.03 in 10.0 mi SE 13.8 mph 18.4 mph N/A   Clear
11:15 PM 81.5 °F 85.7 °F 71.4 °F 71% 30.04 in 10.0 mi SE 12.7 mph 16.1 mph N/A   Clear
11:35 PM 81.0 °F 85.1 °F 71.6 °F 73% 30.04 in 7.0 mi SE 10.4 mph - N/A   Clear
11:55 PM 80.8 °F 84.7 °F 71.6 °F 73% 30.04 in 7.0 mi SE 9.2 mph 17.3 mph N/A   Clear